Weather History for West Bend, WI

Change the Weather History Date:

Friday, August 23, 2013

  Actual Average Record
Temperature  
Mean Temperature 64 °F -  
Max Temperature 77 °F 77 °F 97 °F (1948)
Min Temperature 50 °F 56 °F 42 °F (1940)
Degree Days  
Heating Degree Days 2    
Growing Degree Days 14 (Base 50)    
Moisture  
Dew Point 53 °F    
Average Humidity 72    
Maximum Humidity 94    
Minimum Humidity 39    
Precipitation  
Precipitation 0.00 in - - ()
Sea Level Pressure  
Sea Level Pressure 30.18 in    
Wind  
Wind Speed 2 mph (East)    
Max Wind Speed 8 mph    
Max Gust Speed -    
Visibility 9 miles    
Events      
Averages and records for this station are not official NWS values.
T = Trace of Precipitation, MM = Missing Value Source: NWS Daily Summary

Daily Weather History Graph

Daily Weather History Graph

Search for Another Location

Airport:

Trip Planner

Search our weather history database for the weather conditions in past years. The results will help you decide how hot, cold, wet, or windy it might be!

Date:

Astronomy

Aug. 23, 2013 Rise Set
Actual Time 6:06 AM CDT 7:42 PM CDT
Civil Twilight 5:36 AM CDT 8:12 PM CDT
Nautical Twilight 5:00 AM CDT 8:48 PM CDT
Astronomical Twilight 4:20 AM CDT 9:27 PM CDT
Moon 8:53 PM CDT (8/23) 9:08 AM CDT (8/23)
Length of Visible Light 14h 36m
Length of Day
13h 35m
Waning Gibbous, 91% of the Moon is Illuminated
Aug 23
Waning Gibbous
Aug 28
Last Quarter
Sep 5
New
Sep 12
First Quarter
Sep 19
Full

Hourly Weather History & Observations

Time (CDT) Temp. Dew Point Humidity Pressure Visibility Wind Dir Wind Speed Gust Speed Precip Events Conditions
12:15 AM 55.4 °F 51.8 °F 88% 30.15 in 10.0 mi Calm Calm - N/A   Clear
12:35 AM 53.6 °F 51.8 °F 94% 30.15 in 10.0 mi Calm Calm - N/A   Clear
12:55 AM 53.6 °F 51.8 °F 94% 30.15 in 10.0 mi Calm Calm - N/A   Clear
1:15 AM 53.6 °F 51.8 °F 94% 30.15 in 10.0 mi Calm Calm - N/A   Clear
1:35 AM 53.6 °F 51.8 °F 94% 30.15 in 10.0 mi Calm Calm - N/A   Clear
1:55 AM 53.6 °F 50.0 °F 88% 30.15 in 3.0 mi Calm Calm - N/A   Clear
2:15 AM 53.6 °F 50.0 °F 88% 30.15 in 10.0 mi Calm Calm - N/A   Clear
2:35 AM 51.8 °F 50.0 °F 94% 30.15 in 10.0 mi Calm Calm - N/A   Clear
2:55 AM 51.8 °F 50.0 °F 94% 30.15 in 10.0 mi Calm Calm - N/A   Clear
3:15 AM 51.8 °F 50.0 °F 94% 30.16 in 10.0 mi Calm Calm - N/A   Clear
3:35 AM 51.8 °F 50.0 °F 94% 30.16 in 10.0 mi Calm Calm - N/A   Clear
3:55 AM 51.8 °F 50.0 °F 94% 30.16 in 10.0 mi Calm Calm - N/A   Clear
4:15 AM 51.8 °F 50.0 °F 94% 30.15 in 10.0 mi Calm Calm - N/A   Clear
4:35 AM 51.8 °F 50.0 °F 94% 30.16 in 5.0 mi Calm Calm - N/A   Clear
4:55 AM 51.8 °F 50.0 °F 94% 30.16 in 10.0 mi Calm Calm - N/A   Clear
5:15 AM 51.8 °F 50.0 °F 94% 30.17 in 5.0 mi Calm Calm - N/A   Clear
5:35 AM 51.8 °F 50.0 °F 94% 30.17 in 5.0 mi Calm Calm - N/A   Clear
5:55 AM 50.0 °F 48.2 °F 94% 30.18 in 2.0 mi Calm Calm - N/A   Clear
6:15 AM 50.0 °F 46.4 °F 87% 30.18 in 7.0 mi Calm Calm - N/A   Clear
6:35 AM 50.0 °F 48.2 °F 94% 30.19 in 10.0 mi Calm Calm - N/A   Clear
6:55 AM 51.8 °F 50.0 °F 94% 30.20 in 10.0 mi Calm Calm - N/A   Clear
7:15 AM 53.6 °F 51.8 °F 94% 30.20 in 10.0 mi Calm Calm - N/A   Clear
7:35 AM 55.4 °F 53.6 °F 94% 30.20 in 10.0 mi Calm Calm - N/A   Clear
7:55 AM 59.0 °F 55.4 °F 88% 30.20 in 10.0 mi Calm Calm - N/A   Clear
8:15 AM 62.6 °F 57.2 °F 82% 30.20 in 10.0 mi Calm Calm - N/A   Clear
8:55 AM 68.0 °F 59.0 °F 73% 30.20 in 10.0 mi ENE 5.8 mph - N/A   Clear
9:15 AM 68.0 °F 59.0 °F 73% 30.21 in 10.0 mi East 4.6 mph - N/A   Clear
9:35 AM 69.8 °F 59.0 °F 68% 30.21 in 10.0 mi Calm Calm - N/A   Clear
9:55 AM 71.6 °F 55.4 °F 57% 30.21 in 10.0 mi East 3.5 mph - N/A   Clear
10:15 AM 71.6 °F 55.4 °F 57% 30.21 in 10.0 mi ENE 3.5 mph - N/A   Clear
10:35 AM 73.4 °F 53.6 °F 50% 30.22 in 10.0 mi East 5.8 mph - N/A   Clear
10:55 AM 73.4 °F 53.6 °F 50% 30.21 in 10.0 mi NE 5.8 mph - N/A   Clear
11:15 AM 73.4 °F 53.6 °F 50% 30.21 in 10.0 mi ENE 6.9 mph - N/A   Clear
11:35 AM 75.2 °F 53.6 °F 47% 30.21 in 10.0 mi East 6.9 mph - N/A   Clear
11:55 AM 75.2 °F 51.8 °F 44% 30.20 in 10.0 mi ENE 8.1 mph - N/A   Clear
12:15 PM 77.0 °F 50.0 °F 39% 30.20 in 10.0 mi East 4.6 mph - N/A   Clear
12:55 PM 77.0 °F 51.8 °F 41% 30.20 in 10.0 mi ESE 6.9 mph - N/A   Clear
1:15 PM 77.0 °F 50.0 °F 39% 30.20 in 10.0 mi SE 3.5 mph - N/A   Clear
1:55 PM 77.0 °F 50.0 °F 39% 30.19 in 10.0 mi East 6.9 mph - N/A   Clear
2:15 PM 77.0 °F 50.0 °F 39% 30.19 in 10.0 mi East 4.6 mph - N/A   Clear
2:35 PM 77.0 °F 51.8 °F 41% 30.18 in 10.0 mi East 5.8 mph - N/A   Clear
2:55 PM 77.0 °F 51.8 °F 41% 30.19 in 10.0 mi ESE 5.8 mph - N/A   Clear
3:15 PM 77.0 °F 53.6 °F 44% 30.18 in 10.0 mi ESE 6.9 mph - N/A   Clear
3:55 PM 77.0 °F 53.6 °F 44% 30.18 in 10.0 mi East 5.8 mph - N/A   Clear
4:15 PM 77.0 °F 53.6 °F 44% 30.18 in 10.0 mi East 6.9 mph - N/A   Clear
4:35 PM 75.2 °F 51.8 °F 44% 30.18 in 10.0 mi East 6.9 mph - N/A   Clear
4:55 PM 75.2 °F 51.8 °F 44% 30.18 in 10.0 mi East 5.8 mph - N/A   Clear
5:15 PM 73.4 °F 53.6 °F 50% 30.18 in 10.0 mi ESE 8.1 mph - N/A   Clear
5:35 PM 73.4 °F 51.8 °F 47% 30.17 in 10.0 mi ESE 6.9 mph - N/A   Clear
5:55 PM 71.6 °F 53.6 °F 53% 30.18 in 10.0 mi SE 4.6 mph - N/A   Clear
6:15 PM 71.6 °F 55.4 °F 57% 30.17 in 10.0 mi East 5.8 mph - N/A   Clear
6:35 PM 69.8 °F 55.4 °F 60% 30.17 in 10.0 mi East 4.6 mph - N/A   Clear
6:55 PM 69.8 °F 55.4 °F 60% 30.17 in 10.0 mi ESE 4.6 mph - N/A   Clear
7:15 PM 68.0 °F 55.4 °F 64% 30.17 in 10.0 mi ESE 3.5 mph - N/A   Clear
7:35 PM 64.4 °F 57.2 °F 77% 30.17 in 10.0 mi Calm Calm - N/A   Clear
7:55 PM 64.4 °F 57.2 °F 77% 30.17 in 10.0 mi Calm Calm - N/A   Clear
8:15 PM 62.6 °F 57.2 °F 82% 30.18 in 10.0 mi Calm Calm - N/A   Clear
8:35 PM 62.6 °F 57.2 °F 82% 30.19 in 10.0 mi Calm Calm - N/A   Clear
8:55 PM 60.8 °F 55.4 °F 82% 30.19 in 10.0 mi Calm Calm - N/A   Clear
9:55 PM 59.0 °F 55.4 °F 88% 30.20 in 10.0 mi Calm Calm - N/A   Clear
10:35 PM 57.2 °F 53.6 °F 88% 30.20 in 10.0 mi Calm Calm - N/A   Clear
11:15 PM 55.4 °F 53.6 °F 94% 30.21 in 1.5 mi Calm Calm - N/A   Mist
11:55 PM 55.4 °F 51.8 °F 88% 30.20 in 10.0 mi Calm Calm - N/A   Clear